TimeEDT,TemperatureF,Dew PointF,Humidity,Sea Level PressureIn,VisibilityMPH,Wind Direction,Wind SpeedMPH,Gust SpeedMPH,PrecipitationIn,Events,Conditions,WindDirDegrees,DateUTC
12:05 AM,69.8,66.2,88,29.97,9.0,North,5.8,-,N/A,,Overcast,10,2013-08-29 04:05:00
12:44 AM,66.2,62.6,88,29.98,4.0,NE,13.8,-,0.08,Rain-Thunderstorm,Heavy Rain,50,2013-08-29 04:44:00
12:50 AM,66.2,64.4,94,29.99,2.5,NE,8.1,17.3,0.12,Rain-Thunderstorm,Heavy Rain,40,2013-08-29 04:50:00
12:52 AM,66.0,64.0,93,29.99,2.5,NE,8.1,17.3,0.14,Rain-Thunderstorm,Heavy Rain,40,2013-08-29 04:52:00
1:03 AM,64.4,62.6,94,29.99,2.0,Variable,4.6,-,0.13,Rain,Heavy Rain,0,2013-08-29 05:03:00
1:09 AM,64.4,62.6,94,30.00,1.2,Calm,Calm,-,0.22,Rain,Heavy Rain,0,2013-08-29 05:09:00
1:18 AM,64.4,62.6,94,29.99,2.0,Variable,4.6,-,0.30,Rain,Heavy Rain,0,2013-08-29 05:18:00
1:27 AM,64.4,62.6,94,29.99,4.0,Calm,Calm,-,0.35,Rain,Heavy Rain,0,2013-08-29 05:27:00
1:35 AM,64.4,62.6,94,29.99,3.0,Calm,Calm,-,0.38,Rain-Thunderstorm,Rain,0,2013-08-29 05:35:00
1:52 AM,64.0,63.0,96,29.98,4.0,SW,4.6,-,0.43,Rain,Rain,220,2013-08-29 05:52:00
2:52 AM,64.0,62.1,93,29.94,10.0,NW,3.5,-,0.01,Rain,Light Rain,310,2013-08-29 06:52:00
3:52 AM,64.0,62.1,93,29.96,10.0,NNE,5.8,-,0.00,,Partly Cloudy,20,2013-08-29 07:52:00
4:22 AM,64.4,62.6,94,29.99,10.0,North,5.8,-,N/A,,Mostly Cloudy,10,2013-08-29 08:22:00
4:52 AM,63.0,62.1,97,30.00,10.0,Calm,Calm,-,N/A,,Mostly Cloudy,0,2013-08-29 08:52:00
5:52 AM,64.0,62.1,93,30.01,10.0,NW,3.5,-,N/A,,Overcast,320,2013-08-29 09:52:00
6:45 AM,64.4,62.6,94,30.03,9.0,NW,4.6,-,N/A,,Overcast,310,2013-08-29 10:45:00
6:52 AM,64.9,63.0,93,30.03,7.0,NW,5.8,-,N/A,,Overcast,310,2013-08-29 10:52:00
7:38 AM,64.4,62.6,94,30.05,4.0,NW,3.5,-,0.01,,Overcast,310,2013-08-29 11:38:00
7:52 AM,64.9,64.0,97,30.05,6.0,Calm,Calm,-,0.01,,Overcast,0,2013-08-29 11:52:00
8:06 AM,66.2,64.4,94,30.05,7.0,NW,3.5,-,N/A,,Overcast,320,2013-08-29 12:06:00
8:52 AM,66.9,64.0,90,30.05,10.0,NNW,4.6,-,N/A,,Overcast,340,2013-08-29 12:52:00
9:43 AM,68.0,64.4,88,30.06,10.0,NNE,5.8,-,N/A,,Overcast,30,2013-08-29 13:43:00
9:52 AM,69.1,64.0,84,30.06,10.0,North,4.6,-,N/A,,Overcast,10,2013-08-29 13:52:00
10:00 AM,69.8,64.4,83,30.06,10.0,NE,5.8,-,N/A,,Overcast,50,2013-08-29 14:00:00
10:52 AM,69.1,63.0,81,30.07,10.0,North,4.6,-,N/A,,Overcast,10,2013-08-29 14:52:00
11:52 AM,71.1,64.0,78,30.06,10.0,NE,3.5,-,N/A,,Overcast,40,2013-08-29 15:52:00
12:52 PM,70.0,63.0,78,30.06,10.0,East,8.1,-,N/A,,Overcast,80,2013-08-29 16:52:00
1:43 PM,68.0,62.6,83,30.06,10.0,East,8.1,-,N/A,,Overcast,90,2013-08-29 17:43:00
1:52 PM,68.0,62.1,81,30.06,10.0,East,6.9,16.1,N/A,,Overcast,100,2013-08-29 17:52:00
2:02 PM,68.0,60.8,78,30.07,10.0,ENE,8.1,-,N/A,,Overcast,60,2013-08-29 18:02:00
2:52 PM,66.9,61.0,81,30.06,10.0,ENE,8.1,-,N/A,,Overcast,60,2013-08-29 18:52:00
3:13 PM,66.2,60.8,83,30.06,10.0,ENE,5.8,-,N/A,,Overcast,70,2013-08-29 19:13:00
3:52 PM,64.9,61.0,87,30.06,10.0,East,6.9,-,N/A,,Overcast,80,2013-08-29 19:52:00
4:52 PM,64.9,61.0,87,30.06,10.0,East,6.9,-,N/A,,Overcast,90,2013-08-29 20:52:00
5:40 PM,64.4,60.8,88,30.07,10.0,East,5.8,-,N/A,,Overcast,90,2013-08-29 21:40:00
5:52 PM,64.9,60.1,84,30.07,10.0,East,6.9,-,N/A,,Overcast,80,2013-08-29 21:52:00
6:40 PM,64.4,60.8,88,30.06,10.0,East,4.6,-,N/A,,Overcast,100,2013-08-29 22:40:00
6:52 PM,64.0,60.1,87,30.06,10.0,ESE,5.8,-,N/A,,Overcast,110,2013-08-29 22:52:00
7:29 PM,64.4,59.0,83,30.06,10.0,East,3.5,-,N/A,,Overcast,90,2013-08-29 23:29:00
7:52 PM,64.0,60.1,87,30.06,10.0,Calm,Calm,-,N/A,,Overcast,0,2013-08-29 23:52:00
8:27 PM,64.4,59.0,83,30.07,10.0,Calm,Calm,-,N/A,,Overcast,0,2013-08-30 00:27:00
8:52 PM,63.0,59.0,87,30.08,10.0,East,3.5,-,N/A,,Overcast,100,2013-08-30 00:52:00
9:25 PM,62.6,59.0,88,30.08,10.0,Calm,Calm,-,N/A,,Overcast,0,2013-08-30 01:25:00
9:52 PM,63.0,59.0,87,30.07,10.0,ESE,4.6,-,N/A,,Overcast,110,2013-08-30 01:52:00
10:47 PM,62.6,59.0,88,30.06,10.0,ESE,3.5,-,N/A,,Overcast,110,2013-08-30 02:47:00
10:52 PM,63.0,59.0,87,30.06,10.0,Calm,Calm,-,N/A,,Overcast,0,2013-08-30 02:52:00
11:04 PM,62.6,59.0,88,30.05,10.0,ENE,3.5,-,N/A,,Overcast,70,2013-08-30 03:04:00
11:52 PM,63.0,59.0,87,30.04,10.0,Calm,Calm,-,N/A,,Overcast,0,2013-08-30 03:52:00